Location: Marstown
(39.5056°N, 77.0820°W)
Time: 02:07:39
(UTC-05:00)

BlueWalker 3 - Visible Passes

Search period start: 23 February 2024 00:00
Search period end: 04 March 2024 00:00
Orbit: 486 x 500 km, 53.2° (Epoch: 22 February)

Date Brightness Start Highest point End Pass type
(mag) Time Alt. Az. Time Alt. Az. Time Alt. Az.
23 Feb 4.4 18:51:16 10° NW 18:52:51 12° NNW 18:54:26 10° NNE visible
24 Feb 4.4 18:27:24 10° NW 18:29:02 12° NNW 18:30:39 10° NNE visible
24 Feb 4.7 20:07:37 10° N 20:07:42 10° N 20:07:42 10° N visible
25 Feb 4.5 19:43:49 10° N 19:44:52 11° N 19:44:52 11° N visible
26 Feb 4.4 19:20:00 10° N 19:21:02 11° N 19:22:02 10° NNE visible
27 Feb 4.4 18:56:09 10° N 18:57:09 11° N 18:58:09 10° NNE visible
27 Feb 4.9 20:33:21 10° NNW 20:33:40 12° NNW 20:33:40 12° NNW visible
28 Feb 4.3 18:32:17 10° N 18:33:14 11° N 18:34:11 10° NNE visible
28 Feb 4.2 20:09:28 10° NNW 20:10:50 17° NNW 20:10:50 17° NNW visible
29 Feb 3.6 19:45:35 10° NNW 19:48:01 23° N 19:48:01 23° N visible
01 Mar 3.3 19:21:40 10° NNW 19:24:46 23° NNE 19:25:14 23° NE visible
01 Mar 5.3 20:59:34 10° WNW 20:59:43 11° WNW 20:59:43 11° WNW visible
02 Mar 3.4 18:57:44 10° NNW 19:00:48 23° NNE 19:02:31 17° ENE visible
02 Mar 4.4 20:35:37 10° WNW 20:37:00 21° WNW 20:37:00 21° WNW visible
03 Mar 3.4 18:33:47 10° NNW 18:36:48 22° NNE 18:39:49 10° E visible
03 Mar 3.0 20:11:38 10° NW 20:14:20 42° WNW 20:14:20 42° WNW visible
